{"data":{"norad_id":48454,"epoch":"2026-09-19T21:28:13.896192Z","epoch_age_seconds":89638,"freshness":"FRESH","line1":"1 48454U 21040AC  26262.89460528  .00001398  00000+0  56824-4 0  9991","line2":"2 48454  53.1605 354.2965 0001591  52.9591 307.1555 15.31694764296445","mean_motion":15.31694764,"eccentricity":0.0001591,"inclination_deg":53.1605,"raan_deg":354.2965,"arg_perigee_deg":52.9591,"mean_anomaly_deg":307.1555,"bstar":5.6824e-5,"rev_number":29644,"period_min":94.013509339123,"perigee_km":469.66594470043,"apogee_km":471.84526232687,"semimajor_km":6848.8926035137,"source":"CELESTRAK","updated_at":"2026-09-20T09:00:39.127038Z"}}